Probability
0 0 0 0 0 0 0 0 0 0 0 0 0 0 0 0 0 0 0 0 0 0 0 0 0 0 0 0 0 0 0 0 0 0 0 0 0 0
0 0 0 0 0 0 0 0 0 0 0 0 0 0 0 0 0 0 0 0 0 0 0 0 0 0 0 0 0 0 0 0 0 0 0 0 0 0
0 0 0 0 0 0 0 0 0 0 0 0 0 0 0 0 0 0 0 0 0 0 0 0 0 0 0 0 0 0 0 0 0 0 0 0 0 0
0 0 0 0 0 0 0 0 0 0 0 0 0 0 0 0 0 0 0 0 0 0 0 0 0 0 0 0 0 0 0 0 0 0 0 0 0 0
0 0 0 0 0 0 0 0 0 0 0 0 0 0 0 0 0 0 0 0 0 0 0 0 0 0 0 0 0 0 0 0 0 0 0 0 0 0
0 0 0 0 0 0 0 0 0 0 0 0 0 0 0 0 0 0 0 0 0 0 0 0 0 0 0 0 0 0 0 0 0 0 0 0 0 0
0 0 0 0 0 0 0 0 0 0 0 0 0 0 0 0 0 0 0 0 0 0 0 0 0 0 0 0 0 0 0 0 0 0 0 0 0 0
0 0 0 0 0 0 0 0 0 0 0 0 0 0 0 0 0 0 0 0 0 0 0 0 0 0 0 0 0 0 0 0 0 0 0 0 0 0
0 0 0 0 0 0 0 0 0 0 0 0 0 0 0 0 0 0 0 0 0 0 0 0 0 0 0 0 0 0 0 0 0 0 0 0 0 0
0 0 0 0 0 0 0 0 0 0 0 0 0 0 0 0 0 0 0 0 0 0 0 0 0 0 0 0 0 0 0 0 0 0 0 0 0 0
0 0 0 0 0 0 0 0 0 0 0 0 0 0 0 0 0 0 0 0 0 0 0 0 0 0 0 0 0 0 0 0 0 0 0 0 0 0
0 0 0 0 0 0 0 0 0 0 0 0 0 0 0 0 0 0 0 0 0 0 0 0 0 0 0 0 0 0 0 0 0 0 0 0 0 0
0 0 0 0 0 0 0 0 0 0 0 0 0 0 0 0 0 0 0 0 0 0 0 0 0 0 0 0 0 0 0 0 0 0 0 0 0 0
0 0 0 0 0 0 0 0 0 0 0 0 0 0 0 0 0 0 0 0 0 0 0 0 0 0 0 0 0 0 0 0 0 0 0 0 0 0
0 0 0 0 0 0 0 0 0 0 0 0 0 0 0 0 0 0 0 0 0 0 0 0 0 0 0 0 0 0 0 0 0 0 0 0 0 0
0 0 0 0 0 0 0 0 0 0 0 0 0 0 0 0 0 0 0 0 0 0 0 0 0 0 0 0 0 0 0 0 0 0 0 0 0 0
0 0 0 0 0 0 0 0 0 0 0 0 0 0 0 0 0 0 0 0 0 0 0 0 0 0 0 0 0 0 0 0 0 0 0 0 0 0
0 0 0 0 0 0 0 0 0 0 0 0 0 0 0 0 0 0 0 0 0 0 0 0 0 0 0 0 0 0 0 0 0 0 0 0 0 0
0 0 0 0 0 0 0 0 0 0 0 0 0 0 0 0 0 0 0 0 0 0 0 0 0 0 0 0 0 0 0 0 0 0 0 0 0 0
0 0 0 0 0 0 0 0 0 0 0 0 0 0 0 0 0 0 0 0 0 0 0 0 0 0 0 0 0 0 0 0 0 0 0 0 0 0
0 0 0 0 0 0 0 0 0 0 0 0 0 0 0 0 0 0 0 0 0 0 0 0 0 0 0 0 0 0 0 0 0 0 0 0 0 0
0 0 0 0 0 0 0 0 0 0 0 0 0 0 0 0 0 0 0 0 0 0 0 0 0 0 0 0 0 0 0 0 0 0 0 0 0 0
0 0 0 0 0 0 0 0 0 0 0 0 0 0 0 0 0 0 0 0 0 0 0 0 0 0 0 0 0 0 0 0 0 0 0 0 0 0
Height
5688 5691 5694 5697 5699 5701 5704 5706 5708 5710 5713 5714 5715 5716 5717 5718 5719 5720 5721 5721 5722 5723 5723 5724 5724 5724 5724 5724 5723 5723 5722 5721 5720 5719 5718 5717 5715 5714
5676 5679 5682 5685 5687 5690 5692 5694 5696 5698 5700 5703 5704 5705 5705 5706 5707 5708 5709 5710 5711 5711 5712 5712 5712 5712 5712 5712 5711 5711 5710 5709 5708 5707 5706 5705 5703 5702
5663 5666 5670 5672 5675 5677 5680 5682 5684 5686 5688 5691 5692 5693 5694 5695 5695 5696 5697 5698 5699 5699 5700 5700 5700 5700 5700 5700 5699 5699 5698 5696 5695 5694 5693 5692 5690 5689
5650 5653 5657 5659 5662 5665 5667 5669 5672 5673 5676 5678 5680 5681 5682 5682 5683 5684 5685 5686 5687 5687 5687 5688 5688 5688 5688 5687 5687 5686 5685 5684 5683 5682 5681 5679 5677 5675
5637 5641 5644 5647 5650 5652 5655 5657 5659 5661 5663 5665 5667 5669 5669 5670 5671 5672 5672 5673 5674 5674 5675 5675 5675 5675 5675 5675 5674 5674 5673 5672 5671 5669 5667 5666 5664 5662
5624 5628 5631 5634 5637 5639 5642 5644 5646 5648 5650 5652 5654 5655 5656 5657 5658 5659 5660 5660 5661 5662 5662 5662 5662 5662 5662 5662 5662 5661 5660 5658 5657 5656 5654 5652 5651 5649
5612 5615 5618 5621 5624 5626 5629 5631 5633 5635 5636 5638 5640 5642 5643 5644 5645 5646 5647 5648 5648 5649 5649 5649 5649 5649 5649 5649 5648 5647 5646 5645 5644 5642 5641 5639 5637 5636
5599 5602 5605 5608 5610 5613 5615 5618 5620 5622 5623 5625 5627 5629 5630 5631 5631 5632 5633 5635 5636 5637 5636 5636 5636 5636 5636 5635 5635 5634 5633 5631 5630 5628 5627 5625 5624 5623
5586 5589 5592 5595 5597 5600 5602 5604 5606 5608 5610 5613 5614 5615 5617 5618 5618 5619 5619 5620 5622 5622 5622 5623 5622 5622 5622 5621 5620 5620 5618 5617 5615 5614 5613 5612 5611 5610
5573 5576 5579 5582 5584 5586 5589 5591 5593 5595 5598 5600 5602 5603 5603 5604 5604 5605 5606 5606 5608 5608 5607 5608 5608 5608 5608 5607 5607 5605 5604 5602 5601 5600 5599 5598 5597 5596
5561 5564 5566 5569 5571 5574 5576 5579 5581 5583 5584 5586 5588 5589 5590 5590 5591 5591 5592 5593 5594 5594 5593 5594 5594 5594 5594 5594 5593 5591 5590 5588 5587 5586 5585 5584 5583 5582
5549 5551 5554 5556 5558 5560 5563 5566 5568 5570 5572 5574 5575 5576 5576 5577 5578 5578 5579 5579 5580 5581 5580 5580 5580 5580 5581 5580 5579 5577 5575 5574 5573 5572 5571 5570 5569 5568
5536 5538 5541 5543 5546 5548 5550 5553 5555 5557 5559 5561 5562 5563 5563 5564 5565 5565 5565 5566 5566 5567 5567 5566 5566 5566 5566 5566 5565 5563 5561 5560 5559 5558 5557 5556 5555 5554
5524 5526 5528 5531 5533 5536 5538 5540 5542 5544 5546 5548 5549 5550 5550 5551 5552 5552 5552 5552 5552 5553 5553 5553 5553 5552 5551 5551 5551 5550 5547 5546 5544 5543 5542 5541 5540 5539
5511 5514 5516 5519 5521 5524 5526 5528 5530 5532 5533 5535 5536 5537 5538 5538 5539 5539 5539 5539 5539 5539 5540 5539 5539 5538 5537 5537 5537 5536 5534 5532 5530 5529 5528 5527 5526 5525
5500 5503 5505 5507 5509 5512 5514 5516 5518 5519 5521 5522 5523 5524 5524 5525 5526 5526 5527 5527 5527 5527 5527 5526 5525 5525 5524 5523 5523 5522 5521 5519 5518 5516 5515 5514 5513 5511
5489 5491 5494 5496 5498 5500 5502 5504 5505 5507 5508 5510 5510 5511 5512 5513 5513 5514 5514 5514 5515 5515 5514 5514 5513 5512 5511 5511 5510 5510 5508 5507 5505 5504 5502 5501 5500 5499
5478 5480 5483 5485 5487 5488 5490 5492 5493 5495 5496 5498 5499 5500 5500 5501 5502 5502 5503 5503 5503 5503 5502 5502 5501 5501 5500 5499 5499 5497 5496 5495 5493 5492 5490 5490 5489 5487
5467 5469 5471 5473 5475 5477 5478 5480 5482 5483 5484 5486 5487 5488 5489 5490 5490 5491 5491 5491 5491 5491 5491 5491 5491 5490 5490 5489 5488 5486 5485 5484 5482 5481 5479 5478 5477 5475
5456 5459 5461 5462 5464 5465 5467 5468 5470 5472 5473 5475 5476 5477 5478 5479 5479 5480 5480 5480 5480 5480 5480 5480 5480 5479 5479 5478 5477 5476 5474 5473 5471 5470 5469 5467 5465 5464
5446 5448 5450 5452 5454 5455 5456 5458 5459 5461 5463 5464 5466 5467 5468 5468 5469 5469 5470 5470 5470 5470 5470 5469 5469 5468 5468 5467 5467 5466 5464 5462 5460 5459 5457 5456 5455 5453
5436 5438 5440 5442 5443 5445 5446 5448 5449 5451 5452 5454 5455 5456 5457 5458 5459 5459 5459 5459 5459 5459 5459 5459 5458 5458 5458 5457 5456 5455 5454 5452 5450 5448 5446 5445 5444 5442
5427 5429 5431 5432 5434 5435 5437 5438 5440 5441 5443 5444 5445 5446 5447 5448 5449 5449 5449 5449 5449 5449 5449 5449 5448 5448 5448 5447 5446 5445 5444 5442 5440 5439 5437 5435 5433 5432
Wind_Speed
47 46 45 44 44 44 44 44 43 43 43 43 43 43 43 43 43 43 43 43 43 43 44 44 44 44 44 44 44 45 45 45 45 45 46 46 46 47
48 47 46 46 45 45 45 45 45 44 43 43 44 44 44 45 45 45 45 45 45 45 45 46 46 45 45 45 46 46 47 47 48 47 48 48 48 48
48 48 48 47 47 46 46 46 46 46 46 45 45 45 45 46 46 47 46 46 46 46 46 46 46 46 46 46 47 47 47 48 48 48 48 49 49 49
50 49 48 48 47 47 47 47 47 47 47 47 46 46 45 46 46 47 47 47 46 46 46 46 46 46 46 46 47 47 48 48 48 48 49 50 49 48
49 49 49 49 48 48 48 48 47 47 47 47 47 47 47 47 47 47 47 47 47 46 46 46 47 47 48 48 48 49 49 49 49 49 49 49 49 49
48 48 49 49 48 48 48 48 48 48 48 48 48 48 48 48 47 47 46 46 47 46 47 47 47 48 48 48 49 49 50 51 50 50 50 50 49 49
47 47 47 48 48 49 48 48 47 47 48 48 48 48 47 47 48 48 48 47 48 48 48 48 48 48 49 49 49 49 50 50 50 50 51 50 49 49
47 46 46 47 47 48 48 48 48 47 47 47 47 47 48 48 48 48 49 49 49 49 49 49 49 48 49 49 49 50 50 50 51 51 50 49 49 48
46 46 46 46 47 48 48 48 47 47 46 47 47 47 47 48 48 48 48 49 49 50 50 49 49 49 49 49 50 50 50 50 50 50 50 49 49 49
45 45 45 46 47 47 46 46 46 46 47 47 47 47 47 48 48 48 48 48 48 49 49 49 49 49 48 48 48 49 50 50 50 50 50 50 49 48
45 46 46 46 46 47 47 46 47 46 46 46 46 47 47 47 47 47 47 47 47 48 48 48 48 48 48 48 48 49 49 49 49 48 48 49 48 48
45 46 46 46 46 46 46 46 46 46 46 45 45 46 46 47 46 47 47 47 48 47 47 48 48 49 48 48 48 48 48 49 49 48 48 47 47 47
45 44 44 45 45 45 45 45 45 45 45 45 45 46 46 46 46 46 47 47 47 47 47 48 48 49 49 48 49 49 49 49 49 49 48 48 48 49
43 43 43 43 44 44 44 44 44 45 45 45 45 45 45 45 45 46 47 47 47 47 47 47 48 48 48 49 49 49 49 49 49 49 49 49 49 49
41 42 42 42 42 43 43 43 43 44 44 44 44 44 45 45 45 46 46 46 46 46 46 46 46 46 46 46 46 47 47 47 47 47 48 48 48 47
40 41 41 41 41 41 42 42 42 42 43 43 44 43 43 44 44 44 44 44 44 44 44 44 44 44 44 44 44 43 43 43 44 45 45 45 45 45
39 39 40 40 40 41 41 42 41 41 41 41 42 42 43 43 42 42 42 41 42 42 42 41 41 41 41 41 42 42 42 42 42 42 42 43 43 43
37 37 38 39 39 40 40 41 41 40 40 40 40 40 40 40 40 40 39 39 39 40 40 40 40 39 39 39 39 39 40 39 39 40 41 41 41 41
36 36 37 37 37 38 39 39 39 39 39 39 38 38 38 38 38 38 38 38 38 38 38 38 38 38 38 38 37 38 38 38 38 39 39 39 40 40
36 36 36 36 36 36 37 38 38 38 38 38 37 36 36 36 36 36 36 36 36 37 37 36 37 36 36 36 36 36 37 38 38 38 39 39 40 40
34 35 35 35 35 35 35 35 35 35 36 36 35 35 35 34 34 34 35 35 36 36 36 35 36 36 36 36 35 35 36 37 37 37 38 38 39 39
33 33 33 33 33 33 32 32 32 33 33 34 34 34 34 34 33 33 34 34 34 34 34 34 34 35 35 35 34 34 34 35 35 35 36 36 36 36
33 33 33 33 32 32 32 32 32 32 33 33 33 33 33 33 33 33 33 33 33 33 32 32 32 33 33 33 32 32 32 32 32 33 33 33 34 34
Wind_Direction
251 252 252 252 252 253 254 255 256 255 255 257 258 259 260 261 262 264 264 263 263 263 264 265 267 268 269 270 271 272 273 274 276 277 278 279 280 282
251 252 252 253 254 255 255 255 255 256 256 257 258 259 260 262 263 264 263 263 263 264 265 266 267 268 269 270 271 271 273 274 276 277 279 279 280 281
251 252 252 253 254 255 255 255 256 256 257 257 258 258 260 261 262 263 263 263 263 264 265 266 266 268 268 270 271 272 273 274 275 277 279 279 280 279
250 251 251 252 253 254 255 256 256 257 257 258 259 260 261 262 262 262 263 263 263 264 265 265 267 268 268 269 271 272 273 274 275 277 279 279 279 278
249 250 251 252 253 254 255 256 257 257 258 259 259 260 261 262 262 262 263 263 264 264 266 267 267 268 269 270 271 272 273 275 276 277 278 278 278 277
249 250 251 252 253 254 256 257 257 258 259 259 260 261 262 262 262 262 262 263 264 265 266 267 267 268 269 270 271 272 273 274 275 276 277 277 277 277
249 250 251 253 254 255 256 257 258 259 259 259 260 261 262 262 262 262 262 263 264 265 266 267 267 268 269 270 271 273 274 275 275 275 276 276 276 276
250 251 253 254 255 255 256 256 257 258 259 259 260 261 262 262 263 263 264 264 265 266 267 267 268 269 270 271 272 274 275 275 275 275 276 275 275 275
251 252 252 253 254 255 256 256 257 257 258 258 259 261 262 262 263 264 264 265 265 266 267 268 268 269 270 271 272 274 274 275 275 275 276 275 275 275
251 252 252 252 253 255 255 256 256 256 257 258 259 261 262 263 264 265 265 266 266 267 268 268 268 269 270 272 273 274 274 274 274 274 274 275 275 275
252 252 253 253 253 255 255 255 256 256 257 259 260 262 263 263 264 265 265 266 267 268 268 268 269 270 271 272 273 274 274 274 273 273 274 275 274 274
253 253 253 253 253 254 255 255 256 257 257 259 261 263 264 264 265 265 266 268 268 268 268 269 269 270 270 271 273 274 274 274 274 273 274 275 275 275
252 253 253 252 252 253 254 256 257 257 257 258 260 263 264 265 266 266 267 268 268 268 269 269 269 270 271 271 272 274 275 275 274 273 273 274 276 277
252 252 252 252 253 253 255 256 257 257 258 259 260 262 264 265 266 266 267 268 268 269 270 270 271 271 272 273 273 274 274 274 274 274 274 274 275 277
251 252 253 253 253 254 255 256 256 258 259 259 261 262 264 265 266 266 267 267 268 268 269 270 271 272 272 273 274 274 274 274 274 275 275 276 276 277
251 252 253 253 253 254 255 256 257 259 259 260 261 262 263 264 264 265 266 267 268 268 269 270 271 272 273 273 274 275 275 275 275 276 276 277 278 278
250 252 252 253 253 254 255 255 257 258 259 260 261 261 262 264 263 263 264 264 266 267 267 269 270 272 274 275 275 275 276 276 276 277 278 279 279 280
249 251 252 253 254 254 255 255 255 256 258 258 259 260 262 262 262 262 262 263 265 266 267 268 270 272 274 276 277 277 277 276 276 277 278 278 279 280
248 250 251 253 254 255 255 255 255 255 255 257 258 259 260 261 261 262 262 263 265 266 268 269 269 270 272 275 276 277 277 277 277 277 277 278 278 279
248 249 250 251 253 255 255 255 254 254 254 255 256 258 259 260 261 261 262 264 265 267 268 269 269 270 272 274 276 277 278 279 279 279 279 278 279 280
247 248 249 251 253 254 255 254 253 253 253 254 256 257 258 259 261 262 264 265 266 266 268 269 269 271 272 275 276 278 279 280 280 280 280 280 281 282
246 248 250 252 253 253 252 252 252 252 253 254 256 257 257 259 261 263 265 266 266 267 268 269 270 271 273 275 277 278 280 280 281 281 281 282 283 284
247 248 250 251 251 251 251 252 253 253 254 255 257 257 258 260 262 264 265 266 266 267 268 269 270 272 274 276 277 278 280 280 281 282 284 285 285 286